[[{"header":{"parameterUnit":"m.s-1","parameterCategory":1,"la1":30.2991,"la2":30.254,"lo1":-89.0895,"lo2":-89.0444,"dy":0.0017,"dx":0.0017,"nx":28,"ny":28,"refTime":"2024-03-16T21:00:00:Z","depth":0,"parameterNumber":2,"parameterNumberName":"U-component_of_WINDS"},"data":[0,0,0,0,0,0,0,0,0,0,0,0,0,0,0,0,0,0,0,0,0,0,0,0,0,0,0,0,0,0,0,0,0,0,0,0,0,0,0,0,0,0,0,0,0,0,0,0,0,0,0,0,0,0,0,0,0,0,0.4665,0.4665,0,0.4697,0.4698,0.4698,0.4715,0.4716,0.4716,0.4716,0.4749,0.475,0.4751,0,0,0,0,0,0,0,0,0,0,0,0,0,0.4619,0.462,0.4665,0.4665,0.4665,0.4697,0.4698,0.4698,0.4715,0.4716,0.4716,0.4716,0.4749,0.475,0.4751,0,0,0,0,0,0,0,0,0,0,0,0,0,0.4644,0.462,0.4665,0.4678,0.4679,0.4697,0.4698,0.4698,0.4715,0.4716,0.4716,0.4716,0.4749,0.475,0.4751,0.4758,0,0,0.4755,0.4756,0,0,0,0,0,0,0,0,0.4643,0.4646,0.4676,0.4677,0.4679,0.4702,0.4694,0.4718,0.4715,0.4702,0.4716,0.4716,0.4734,0.4736,0.4742,0.476,0.4761,0.4755,0.4756,0.4757,0.4757,0,0,0,0,0,0,0,0.4641,0.4644,0.4678,0.4676,0.4678,0.4683,0.4687,0.4699,0.4717,0.4703,0.4704,0.4708,0.4735,0.4741,0.4743,0.4762,0.4755,0.4756,0.4757,0.4758,0.4789,0.4789,0,0,0,0,0,0,0.4637,0.4643,0.4677,0.4679,0.466,0.4684,0.4688,0.4695,0.4717,0.472,0.4708,0.4709,0.4739,0.4742,0.4744,0.4755,0.4757,0.4758,0.4759,0.4789,0.4789,0.4789,0,0,0,0,0,0,0.4636,0.464,0.4675,0.4661,0.4666,0.4684,0.4692,0.4695,0.4702,0.4721,0.4724,0.4711,0.4739,0.4743,0.4755,0.4757,0.4758,0.476,0.4789,0.4789,0.4789,0.4776,0,0,0,0,0,0,0.4634,0.4639,0.4641,0.4661,0.4667,0.4685,0.4692,0.4696,0.4704,0.4705,0.4724,0.4728,0.4739,0.4753,0.4757,0.4758,0.4761,0.4789,0.4789,0.4789,0.4777,0.4776,0.4775,0,0,0,0,0,0.4633,0.4636,0.4641,0.4645,0.467,0.4685,0.4688,0.4701,0.4704,0.4707,0.4719,0.4727,0.4756,0.4754,0.4758,0.4761,0.4789,0.4789,0.4789,0.4777,0.4776,0.4775,0,0,0,0,0,0,0.4615,0.4639,0.4645,0.4655,0.4668,0.4688,0.4691,0.47,0.4712,0.4713,0.4729,0.4733,0.4744,0.4754,0.4751,0.477,0.4774,0.4774,0.4763,0.4762,0.4761,0.4758,0.4762,0,0,0,0,0,0.4613,0.4623,0.4643,0.4649,0.4656,0.4672,0.4679,0.4689,0.4703,0.4708,0.4722,0.4736,0.4748,0.4756,0.4768,0.4779,0.4784,0.4782,0.4782,0.4781,0.4781,0.4789,0.4789,0.479,0.479,0.479,0,0,0.4607,0.4621,0.4626,0.4646,0.4657,0.4668,0.4677,0.4687,0.4695,0.471,0.4723,0.4733,0.475,0.4762,0.4768,0.477,0.4783,0.4781,0.4781,0.4781,0.4789,0.4789,0.4789,0.479,0.479,0.479,0,0,0.4602,0.4614,0.4621,0.4633,0.465,0.4661,0.4663,0.4683,0.469,0.4704,0.4716,0.4726,0.4747,0.4759,0.4767,0.477,0.4778,0.4774,0.477,0.4777,0.4777,0.4777,0.4779,0.4779,0.4774,0.4774,0.4774,0,0.4593,0.4609,0.4624,0.4634,0.4643,0.4658,0.4666,0.4677,0.4697,0.4703,0.4706,0.4734,0.4746,0.4761,0.4762,0.4769,0.4772,0.4771,0.4776,0.4776,0.4776,0.4778,0.4779,0.4774,0.4774,0.4774,0.4774,0,0.4597,0.4608,0.4612,0.4632,0.4642,0.4651,0.4668,0.4676,0.4686,0.4697,0.4712,0.4727,0.4744,0.4749,0.4757,0.4766,0.4767,0.4773,0.4777,0.4776,0.4777,0.4778,0.4773,0.4773,0.4773,0.4773,0,0,0.458,0.461,0.4611,0.4621,0.4642,0.4652,0.4662,0.4679,0.4686,0.47,0.471,0.4729,0.4735,0.4745,0.4756,0.4762,0.4765,0.4767,0.4768,0.4766,0.4777,0.4772,0.4772,0.4771,0.4771,0.4771,0.4775,0,0.4578,0.4598,0.4613,0.4626,0.4638,0.4653,0.4663,0.4678,0.469,0.4701,0.4715,0.4728,0.4735,0.4741,0.4748,0.4763,0.4767,0.4763,0.478,0.4781,0.4775,0.4773,0.4768,0.4771,0.4776,0.4776,0.4776,0,0.4578,0.4593,0.4608,0.463,0.4635,0.4643,0.466,0.4671,0.4689,0.4698,0.471,0.4722,0.4735,0.4739,0.4758,0.4755,0.4764,0.4772,0.4773,0.4774,0.4778,0.4775,0.4772,0.4773,0.4778,0.4777,0.4777,0,0.4564,0.4588,0.46,0.4608,0.4634,0.464,0.4651,0.4669,0.4679,0.4694,0.4701,0.4718,0.4727,0.4741,0.4757,0.4758,0.4775,0.478,0.4783,0.4783,0.4785,0.4784,0.4784,0.4791,0.4791,0.4791,0.4791,0,0.456,0.4569,0.4595,0.4602,0.4613,0.4631,0.4642,0.4654,0.4671,0.4682,0.4697,0.4707,0.4728,0.4742,0.4755,0.4769,0.4774,0.4781,0.4785,0.478,0.4779,0.4785,0.4785,0.4791,0.4791,0.4791,0.4791,0,0.4546,0.4564,0.4578,0.4602,0.4609,0.4616,0.4637,0.4645,0.4659,0.4673,0.4678,0.4699,0.4716,0.4734,0.4757,0.4766,0.478,0.4785,0.4774,0.4775,0.4777,0.4777,0.478,0.4782,0.4788,0.4788,0.4788,0,0.4542,0.4549,0.4575,0.4583,0.4594,0.4607,0.4618,0.4637,0.4647,0.467,0.4676,0.4694,0.4709,0.4735,0.4754,0.4772,0.4777,0.4777,0.478,0.4775,0.4777,0.4776,0.4778,0.4776,0.4775,0.4775,0.4775,0,0.4533,0.4542,0.4556,0.4574,0.4586,0.4601,0.4617,0.4623,0.4645,0.4657,0.4674,0.4686,0.471,0.4728,0.4749,0.4761,0.4772,0.4775,0.4776,0.4771,0.4764,0.4768,0.4771,0.4774,0.4774,0.4774,0.4774,0.4774,0.4524,0.4532,0.4551,0.4567,0.4581,0.4596,0.4606,0.4621,0.4636,0.4657,0.4668,0.4685,0.4706,0.4735,0.4747,0.4762,0.4765,0.4767,0.4768,0.4768,0.4767,0.4763,0.4766,0.4766,0.4766,0.4766,0.4766,0,0.4516,0.453,0.4544,0.4566,0.4579,0.4589,0.4608,0.4618,0.4633,0.4651,0.4666,0.4687,0.4705,0.4726,0.4746,0.4754,0.476,0.4759,0.4758,0.4761,0.4763,0.4759,0.4754,0.4754,0.4754,0.4754,0.4754,0.4754,0.4513,0.4527,0.4538,0.456,0.4575,0.4592,0.4602,0.4616,0.463,0.4653,0.4669,0.4682,0.4702,0.4724,0.4741,0.4747,0.4754,0.4751,0.4758,0.476,0.476,0.4761,0.4758,0.4752,0.4752,0.4755,0.4755,0.4755]},{"header":{"parameterUnit":"m.s-1","parameterCategory":1,"la1":30.2991,"la2":30.254,"lo1":-89.0895,"lo2":-89.0444,"dy":0.0017,"dx":0.0017,"nx":28,"ny":28,"refTime":"2024-03-16T21:00:00:Z","depth":0,"parameterNumber":3,"parameterNumberName":"V-component_of_WINDS"},"data":[0,0,0,0,0,0,0,0,0,0,0,0,0,0,0,0,0,0,0,0,0,0,0,0,0,0,0,0,0,0,0,0,0,0,0,0,0,0,0,0,0,0,0,0,0,0,0,0,0,0,0,0,0,0,0,0,0,0,-7.241,-7.2411,0,-7.2539,-7.254,-7.2542,-7.2482,-7.2478,-7.2475,-7.2472,-7.2599,-7.2606,-7.2612,0,0,0,0,0,0,0,0,0,0,0,0,0,-7.2106,-7.2112,-7.2409,-7.2411,-7.2413,-7.2539,-7.254,-7.2542,-7.2482,-7.2478,-7.2474,-7.2471,-7.2597,-7.2605,-7.2612,0,0,0,0,0,0,0,0,0,0,0,0,0,-7.2237,-7.2114,-7.2409,-7.2398,-7.2398,-7.2538,-7.254,-7.2543,-7.2483,-7.2478,-7.2473,-7.2469,-7.2595,-7.2604,-7.2614,-7.277,0,0,-7.2643,-7.2647,0,0,0,0,0,0,0,0,-7.223,-7.2248,-7.2398,-7.2399,-7.24,-7.2489,-7.248,-7.2619,-7.2484,-7.2451,-7.2472,-7.2466,-7.2566,-7.2578,-7.2613,-7.2776,-7.2782,-7.2644,-7.265,-7.2654,-7.2656,0,0,0,0,0,0,0,-7.2221,-7.2242,-7.246,-7.24,-7.2401,-7.2385,-7.2398,-7.2506,-7.2534,-7.2453,-7.2449,-7.2466,-7.2566,-7.2604,-7.2615,-7.2783,-7.2643,-7.2652,-7.2658,-7.2662,-7.3083,-7.3088,0,0,0,0,0,0,-7.2212,-7.2235,-7.2456,-7.2464,-7.2301,-7.2395,-7.2409,-7.2465,-7.2533,-7.2538,-7.247,-7.2462,-7.259,-7.2604,-7.2619,-7.2809,-7.2654,-7.2663,-7.2668,-7.3077,-7.3084,-7.309,0,0,0,0,0,0,-7.2206,-7.2233,-7.2451,-7.2349,-7.2375,-7.2405,-7.2468,-7.247,-7.2508,-7.2545,-7.2549,-7.2504,-7.2586,-7.2606,-7.2734,-7.2812,-7.2667,-7.2676,-7.3071,-7.3079,-7.3087,-7.3187,0,0,0,0,0,0,-7.2198,-7.2231,-7.2292,-7.2351,-7.2381,-7.2565,-7.2473,-7.2477,-7.2526,-7.2517,-7.2578,-7.2583,-7.2584,-7.272,-7.2743,-7.2823,-7.2683,-7.3064,-7.3075,-7.3084,-7.3177,-7.3198,-7.3216,0,0,0,0,0,-7.2187,-7.2313,-7.2295,-7.2322,-7.2458,-7.257,-7.2587,-7.2587,-7.2532,-7.2593,-7.2617,-7.2582,-7.28,-7.2733,-7.2759,-7.2843,-7.3059,-7.3072,-7.3084,-7.3169,-7.3194,-7.3215,0,0,0,0,0,0,-7.2261,-7.2321,-7.2301,-7.2451,-7.2506,-7.2559,-7.2636,-7.2613,-7.2683,-7.2672,-7.2667,-7.2681,-7.2814,-7.2841,-7.2766,-7.2998,-7.2921,-7.2939,-7.2977,-7.3001,-7.302,-7.3011,-7.2691,0,0,0,0,0,-7.2295,-7.2382,-7.2429,-7.2556,-7.2585,-7.2606,-7.2655,-7.265,-7.2706,-7.2728,-7.2761,-7.2816,-7.2897,-7.295,-7.3026,-7.318,-7.3193,-7.325,-7.327,-7.3285,-7.3301,-7.3386,-7.3412,-7.313,-7.313,-7.313,0,0,-7.2365,-7.2409,-7.2464,-7.2572,-7.2614,-7.2704,-7.2626,-7.2723,-7.279,-7.2742,-7.2866,-7.2893,-7.2953,-7.3095,-7.3159,-7.3121,-7.3382,-7.3301,-7.3313,-7.3321,-7.3401,-7.3428,-7.3452,-7.3138,-7.3137,-7.3135,0,0,-7.254,-7.2581,-7.2693,-7.2737,-7.2803,-7.2816,-7.2843,-7.2901,-7.2917,-7.3042,-7.3009,-7.3086,-7.3225,-7.327,-7.3311,-7.3504,-7.3474,-7.3528,-7.3629,-7.3712,-7.3734,-7.3754,-7.3824,-7.3849,-7.3544,-7.3544,-7.3544,0,-7.2619,-7.2754,-7.2752,-7.2854,-7.2903,-7.2866,-7.2978,-7.3021,-7.3107,-7.3141,-7.3098,-7.3273,-7.331,-7.3464,-7.3511,-7.3545,-7.3575,-7.3522,-7.3731,-7.3751,-7.3769,-7.3836,-7.3862,-7.355,-7.355,-7.3549,-7.3548,0,-7.2848,-7.2943,-7.3024,-7.3112,-7.3169,-7.3275,-7.3289,-7.3347,-7.3337,-7.3355,-7.3482,-7.3527,-7.3612,-7.3647,-7.3638,-7.38,-7.3774,-7.3731,-7.3653,-7.3803,-7.3865,-7.3891,-7.356,-7.3557,-7.3555,-7.3554,0,0,-7.3073,-7.3159,-7.319,-7.3229,-7.3299,-7.3371,-7.3476,-7.3561,-7.3612,-7.3672,-7.376,-7.3879,-7.384,-7.3887,-7.3882,-7.3954,-7.4106,-7.3902,-7.3903,-7.394,-7.4288,-7.4321,-7.435,-7.4086,-7.4091,-7.4095,-7.4283,0,-7.3254,-7.3439,-7.3441,-7.3611,-7.3698,-7.3665,-7.3756,-7.3808,-7.3827,-7.3903,-7.3923,-7.4009,-7.395,-7.3978,-7.4049,-7.4072,-7.4176,-7.4059,-7.4167,-7.4171,-7.4154,-7.4383,-7.4418,-7.4593,-7.4307,-7.4311,-7.4314,0,-7.349,-7.3561,-7.374,-7.3799,-7.3836,-7.3918,-7.3997,-7.407,-7.4128,-7.4137,-7.419,-7.4174,-7.428,-7.4198,-7.4343,-7.4264,-7.4308,-7.4326,-7.4333,-7.4344,-7.4252,-7.4401,-7.4649,-7.4676,-7.4353,-7.435,-7.4347,0,-7.3638,-7.3778,-7.3904,-7.3938,-7.401,-7.4069,-7.4101,-7.4154,-7.4206,-7.4274,-7.4308,-7.4387,-7.443,-7.4491,-7.4497,-7.4437,-7.4643,-7.4562,-7.4653,-7.4653,-7.4699,-7.4696,-7.4959,-7.4726,-7.4725,-7.4725,-7.4724,0,-7.384,-7.3951,-7.3972,-7.4049,-7.4173,-7.4173,-7.4295,-7.4322,-7.437,-7.4452,-7.4426,-7.4503,-7.4505,-7.4583,-7.4587,-7.4708,-7.4727,-7.4736,-7.4737,-7.474,-7.4739,-7.4769,-7.4758,-7.4732,-7.473,-7.4729,-7.4727,0,-7.4027,-7.4045,-7.418,-7.4237,-7.4254,-7.4343,-7.4391,-7.4465,-7.4481,-7.4585,-7.4609,-7.4635,-7.4726,-7.4738,-7.4842,-7.4846,-7.499,-7.4977,-7.4972,-7.497,-7.5062,-7.5053,-7.5354,-7.5394,-7.5133,-7.5136,-7.5138,0,-7.4155,-7.4241,-7.4308,-7.4362,-7.4398,-7.4484,-7.4538,-7.4541,-7.4597,-7.4671,-7.4736,-7.4824,-7.4896,-7.5042,-7.5069,-7.5149,-7.5138,-7.5238,-7.515,-7.5151,-7.5141,-7.5137,-7.5146,-7.5256,-7.5258,-7.5261,-7.5263,0,-7.4383,-7.4388,-7.4467,-7.455,-7.4615,-7.4679,-7.474,-7.4785,-7.4796,-7.486,-7.4954,-7.5009,-7.5118,-7.5206,-7.5286,-7.5317,-7.5292,-7.529,-7.5316,-7.532,-7.5315,-7.532,-7.502,-7.5283,-7.5281,-7.528,-7.5279,-7.5278,-7.4545,-7.462,-7.468,-7.4769,-7.4815,-7.4873,-7.4946,-7.4973,-7.5052,-7.5142,-7.5138,-7.5242,-7.5298,-7.5402,-7.5439,-7.5519,-7.5486,-7.5523,-7.5533,-7.5542,-7.5552,-7.5301,-7.5533,-7.5533,-7.5532,-7.5532,-7.5531,0,-7.4772,-7.4809,-7.4891,-7.4979,-7.5049,-7.5021,-7.5087,-7.5147,-7.5239,-7.5294,-7.5366,-7.5473,-7.5559,-7.5594,-7.5678,-7.5735,-7.5726,-7.5757,-7.5753,-7.5761,-7.5576,-7.5546,-7.5763,-7.5763,-7.5763,-7.5763,-7.5763,-7.5763,-7.4899,-7.5025,-7.5037,-7.5185,-7.5221,-7.5324,-7.5364,-7.5417,-7.5461,-7.5584,-7.5656,-7.5679,-7.5726,-7.5813,-7.589,-7.5898,-7.593,-7.5967,-7.597,-7.5797,-7.5774,-7.5751,-7.5723,-7.5974,-7.5974,-7.6148,-7.615,-7.6151]}]]